,,,PA_Meas_PMT16A,,PR_Meas_QMR101_102,,RH_Meas_QMH101,,SR_Meas_QMS101,,TA_Meas_QMH101,,GenWind,,GenWind,
date,time,status,PA,status,PR,status,RH,status,SR,status,TA,status,DirAvg,status,SpdAvg,
2010-06-19, 00:00:05,VALID,1005.04,VALID,0,VALID,86.9769,VALID,0,VALID,26.1355,VALID,353,VALID,1.38711,
2010-06-19, 00:01:05,VALID,1005.02,VALID,0,VALID,86.5573,VALID,0,VALID,26.0946,VALID,357,VALID,1.03242,
2010-06-19, 00:02:05,VALID,1005.05,VALID,0,VALID,86.6793,VALID,0,VALID,26.1375,VALID,12,VALID,1.38789,
2010-06-19, 00:03:05,VALID,1005.05,VALID,0,VALID,86.809,VALID,0,VALID,26.1375,VALID,26,VALID,1.25469,
2010-06-19, 00:04:05,VALID,1005.04,VALID,0,VALID,87.1218,VALID,0,VALID,26.1765,VALID,13,VALID,1.61992,
2010-06-19, 00:05:05,VALID,1005.02,VALID,0,VALID,87.1752,VALID,0,VALID,26.2524,VALID,14,VALID,1.88672,
2010-06-19, 00:06:05,VALID,1004.98,VALID,0,VALID,86.687,VALID,0,VALID,26.3303,VALID,19,VALID,1.64688,
2010-06-19, 00:07:05,VALID,1004.93,VALID,0,VALID,86.4505,VALID,0,VALID,26.3693,VALID,31,VALID,1.27188,
2010-06-19, 00:08:05,VALID,1004.88,VALID,0,VALID,86.4734,VALID,0,VALID,26.3693,VALID,38,VALID,1.70977,
2010-06-19, 00:09:05,VALID,1004.84,VALID,0,VALID,86.4886,VALID,0,VALID,26.4277,VALID,21,VALID,1.79766,
2010-06-19, 00:10:05,VALID,1004.82,VALID,0,VALID,86.4886,VALID,0,VALID,26.4667,VALID,29,VALID,1.28437,
2010-06-19, 00:11:05,VALID,1004.8,VALID,0,VALID,86.336,VALID,0,VALID,26.5056,VALID,39,VALID,1.37695,
2010-06-19, 00:12:05,VALID,1004.85,VALID,0,VALID,86.2216,VALID,0,VALID,26.5466,VALID,73,VALID,0.999219,
2010-06-19, 00:13:05,VALID,1004.89,VALID,0,VALID,86.42,VALID,0,VALID,26.5231,VALID,20,VALID,0.509375,
2010-06-19, 00:14:05,VALID,1005,VALID,0,VALID,86.4428,VALID,0,VALID,26.5251,VALID,56,VALID,1.45664,
2010-06-19, 00:15:05,VALID,1005.06,VALID,0,VALID,86.3284,VALID,0,VALID,26.5446,VALID,46,VALID,0.592188,
2010-06-19, 00:16:05,VALID,1005.15,VALID,0,VALID,86.2369,VALID,0,VALID,26.5446,VALID,37,VALID,0.521484,
2010-06-19, 00:17:05,VALID,1005.21,VALID,0,VALID,86.2674,VALID,0,VALID,26.5661,VALID,37,VALID,0.513281,
2010-06-19, 00:18:05,VALID,1005.29,VALID,0,VALID,86.2826,VALID,0,VALID,26.5641,VALID,37,VALID,0.330078,
2010-06-19, 00:19:05,VALID,1005.29,VALID,0,VALID,86.4581,VALID,0,VALID,26.5661,VALID,37,VALID,0.345703,
2010-06-19, 00:20:05,VALID,1005.29,VALID,0,VALID,86.5115,VALID,0,VALID,26.5855,VALID,65,VALID,1.58672,
2010-06-19, 00:21:05,VALID,1005.21,VALID,0,VALID,86.5802,VALID,0,VALID,26.5855,VALID,74,VALID,0.920313,
2010-06-19, 00:22:05,VALID,1005.13,VALID,0,VALID,86.4428,VALID,0,VALID,26.603,VALID,11,VALID,1.35117,
2010-06-19, 00:23:05,VALID,1005.05,VALID,0,VALID,86.5725,VALID,0.100563,VALID,26.603,VALID,34,VALID,0.412891,
2010-06-19, 00:24:05,VALID,1004.99,VALID,0,VALID,86.542,VALID,0,VALID,26.5835,VALID,81,VALID,0.833203,
2010-06-19, 00:25:05,VALID,1005,VALID,0,VALID,86.6412,VALID,0,VALID,26.5446,VALID,21,VALID,0.958984,
2010-06-19, 00:26:05,VALID,1004.96,VALID,0,VALID,86.9616,VALID,0,VALID,26.5446,VALID,17,VALID,0.916016,
2010-06-19, 00:27:05,VALID,1004.97,VALID,0,VALID,87.16,VALID,0,VALID,26.5056,VALID,59,VALID,0.875781,
2010-06-19, 00:28:05,VALID,1004.98,VALID,0,VALID,87.1447,VALID,0.100563,VALID,26.4472,VALID,76,VALID,0.796484,
2010-06-19, 00:29:05,VALID,1005.02,VALID,0,VALID,87.2744,VALID,0.100563,VALID,26.4102,VALID,64,VALID,0.891016,
2010-06-19, 00:30:05,VALID,1005.06,VALID,0,VALID,87.2515,VALID,0,VALID,26.3518,VALID,9,VALID,1.99453,
2010-06-19, 00:31:05,VALID,1005.15,VALID,0,VALID,87.1218,VALID,0.100563,VALID,26.2913,VALID,30,VALID,1.79922,
2010-06-19, 00:32:05,VALID,1005.18,VALID,0,VALID,87.5872,VALID,0,VALID,26.2524,VALID,147,VALID,0.923828,
2010-06-19, 00:33:05,VALID,1005.23,VALID,0,VALID,87.427,VALID,0,VALID,26.194,VALID,95,VALID,1.45898,
2010-06-19, 00:34:05,VALID,1005.27,VALID,0,VALID,87.6635,VALID,0,VALID,26.1355,VALID,116,VALID,1.23164,
2010-06-19, 00:35:05,VALID,1005.24,VALID,0,VALID,88.167,VALID,0.100563,VALID,26.0771,VALID,71,VALID,0.441406,
2010-06-19, 00:36:05,VALID,1005.22,VALID,0,VALID,88.2967,VALID,0,VALID,26.0401,VALID,96,VALID,1.05977,
2010-06-19, 00:37:05,VALID,1005.12,VALID,0,VALID,88.6247,VALID,0,VALID,25.9602,VALID,82,VALID,0.50625,
2010-06-19, 00:38:05,VALID,1005.04,VALID,0,VALID,88.5103,VALID,0,VALID,25.9038,VALID,109,VALID,0.8875,
2010-06-19, 00:39:05,VALID,1004.98,VALID,0,VALID,89.0595,VALID,0,VALID,25.8434,VALID,87,VALID,0.808984,
2010-06-19, 00:40:05,VALID,1004.97,VALID,0,VALID,89.441,VALID,0,VALID,25.8064,VALID,88,VALID,1.00508,
2010-06-19, 00:41:05,VALID,1005.01,VALID,0,VALID,89.9292,VALID,0,VALID,25.7265,VALID,95,VALID,1.41602,
2010-06-19, 00:42:05,VALID,1005.04,VALID,0,VALID,91.928,VALID,0.100563,VALID,25.6876,VALID,117,VALID,1.45625,
2010-06-19, 00:43:05,VALID,1005.13,VALID,0,VALID,94.3006,VALID,0,VALID,25.6292,VALID,124,VALID,1.48789,
2010-06-19, 00:44:05,VALID,1005.19,VALID,0,VALID,95.1016,VALID,0,VALID,25.6097,VALID,116,VALID,1.05352,
2010-06-19, 00:45:05,VALID,1005.25,VALID,0,VALID,95.4907,VALID,0,VALID,25.5707,VALID,128,VALID,1.83945,
2010-06-19, 00:46:05,VALID,1005.23,VALID,0,VALID,95.6051,VALID,0,VALID,25.5104,VALID,123,VALID,1.37031,
2010-06-19, 00:47:05,VALID,1005.18,VALID,0,VALID,96.0857,VALID,0,VALID,25.5318,VALID,126,VALID,0.992578,
2010-06-19, 00:48:05,VALID,1005.15,VALID,0,VALID,96.4901,VALID,0,VALID,25.5123,VALID,120,VALID,0.814453,
2010-06-19, 00:49:05,VALID,1005.05,VALID,0,VALID,96.8563,VALID,0,VALID,25.4539,VALID,80,VALID,0.908203,
2010-06-19, 00:50:05,VALID,1004.98,VALID,0,VALID,97.0546,VALID,0,VALID,25.4539,VALID,92,VALID,0.804688,
2010-06-19, 00:51:05,VALID,1004.87,VALID,0,VALID,97.1691,VALID,0,VALID,25.4344,VALID,107,VALID,0.521484,
2010-06-19, 00:52:05,VALID,1004.79,VALID,0,VALID,97.3521,VALID,0.100563,VALID,25.3935,VALID,85,VALID,0.610547,
2010-06-19, 00:53:05,VALID,1004.73,VALID,0,VALID,97.4513,VALID,0.100563,VALID,25.376,VALID,101,VALID,1.0582,
2010-06-19, 00:54:04,VALID,1004.68,VALID,0,VALID,97.6039,VALID,0.100563,VALID,25.376,VALID,134,VALID,1.07422,
2010-06-19, 00:55:04,VALID,1004.63,VALID,0,VALID,97.7336,VALID,0,VALID,25.3565,VALID,151,VALID,0.934375,
2010-06-19, 00:56:04,VALID,1004.62,VALID,0,VALID,97.8785,VALID,0,VALID,25.337,VALID,161,VALID,0.775781,
2010-06-19, 00:57:04,VALID,1004.6,VALID,0,VALID,97.9548,VALID,0,VALID,25.337,VALID,176,VALID,0.580859,
2010-06-19, 00:58:04,VALID,1004.57,VALID,0,VALID,98.0387,VALID,0,VALID,25.3176,VALID,125,VALID,0.797656,
2010-06-19, 00:59:04,VALID,1004.54,VALID,0,VALID,98.1684,VALID,0,VALID,25.3176,VALID,113,VALID,0.769531,
2010-06-19, 01:00:04,VALID,1004.53,VALID,0,VALID,98.2066,VALID,0,VALID,25.3176,VALID,113,VALID,0.390625,
2010-06-19, 01:01:04,VALID,1004.49,VALID,0,VALID,98.2829,VALID,0.100563,VALID,25.2767,VALID,101,VALID,0.645312,
2010-06-19, 01:02:04,VALID,1004.49,VALID,0,VALID,98.3515,VALID,0,VALID,25.2786,VALID,88,VALID,0.367188,
2010-06-19, 01:03:04,VALID,1004.51,VALID,0,VALID,98.4354,VALID,0.100563,VALID,25.2786,VALID,88,VALID,0.328906,
2010-06-19, 01:04:04,VALID,1004.53,VALID,0,VALID,98.466,VALID,0,VALID,25.2592,VALID,89,VALID,0.389453,
2010-06-19, 01:05:04,VALID,1004.54,VALID,0,VALID,98.5041,VALID,0.100563,VALID,25.2397,VALID,82,VALID,0.932031,
2010-06-19, 01:06:04,VALID,1004.57,VALID,0,VALID,98.5117,VALID,0.100563,VALID,25.2202,VALID,70,VALID,0.960938,
2010-06-19, 01:07:04,VALID,1004.61,VALID,0,VALID,98.5346,VALID,0.100563,VALID,25.2007,VALID,113,VALID,0.654688,
2010-06-19, 01:08:04,VALID,1004.64,VALID,0,VALID,98.5651,VALID,0.100563,VALID,25.1618,VALID,106,VALID,1.1332,
2010-06-19, 01:09:04,VALID,1004.68,VALID,0,VALID,98.588,VALID,0.100563,VALID,25.1618,VALID,101,VALID,0.869531,
2010-06-19, 01:10:04,VALID,1004.65,VALID,0,VALID,98.6262,VALID,0.100563,VALID,25.1423,VALID,104,VALID,0.480469,
2010-06-19, 01:11:04,VALID,1004.66,VALID,0,VALID,98.6567,VALID,0,VALID,25.1229,VALID,104,VALID,0.478906,
2010-06-19, 01:12:04,VALID,1004.66,VALID,0,VALID,98.6872,VALID,0.100563,VALID,25.1229,VALID,91,VALID,0.658594,
2010-06-19, 01:13:04,VALID,1004.63,VALID,0,VALID,98.7025,VALID,0.100563,VALID,25.1034,VALID,103,VALID,0.547656,
2010-06-19, 01:14:04,VALID,1004.6,VALID,0,VALID,98.7559,VALID,0,VALID,25.1034,VALID,111,VALID,0.571484,
2010-06-19, 01:15:04,VALID,1004.56,VALID,0,VALID,98.7864,VALID,0.100563,VALID,25.1034,VALID,95,VALID,0.386719,
2010-06-19, 01:16:04,VALID,1004.51,VALID,0,VALID,98.8169,VALID,0,VALID,25.0858,VALID,65,VALID,0.891016,
2010-06-19, 01:17:04,VALID,1004.44,VALID,0,VALID,98.855,VALID,0,VALID,25.0663,VALID,35,VALID,0.587891,
2010-06-19, 01:18:04,VALID,1004.43,VALID,0,VALID,98.8627,VALID,0,VALID,25.0469,VALID,16,VALID,0.501562,
2010-06-19, 01:19:04,VALID,1004.48,VALID,0,VALID,98.9084,VALID,0,VALID,25.0469,VALID,17,VALID,0.678906,
2010-06-19, 01:20:04,VALID,1004.48,VALID,0,VALID,98.9466,VALID,0,VALID,25.0274,VALID,17,VALID,0.297656,
2010-06-19, 01:21:04,VALID,1004.51,VALID,0,VALID,98.9924,VALID,0,VALID,25.0274,VALID,7,VALID,0.430078,
2010-06-19, 01:22:04,VALID,1004.53,VALID,0,VALID,99.0076,VALID,0,VALID,25.0274,VALID,9,VALID,0.605469,
2010-06-19, 01:23:04,VALID,1004.52,VALID,0,VALID,99.0381,VALID,0,VALID,25.0079,VALID,4,VALID,0.514453,
2010-06-19, 01:24:04,VALID,1004.54,VALID,0,VALID,99.061,VALID,0,VALID,25.0079,VALID,4,VALID,0.515625,
2010-06-19, 01:25:04,VALID,1004.57,VALID,0,VALID,99.0686,VALID,0,VALID,25.0274,VALID,6,VALID,0.507422,
2010-06-19, 01:26:04,VALID,1004.6,VALID,0,VALID,99.0686,VALID,0,VALID,25.0079,VALID,3,VALID,0.425781,
2010-06-19, 01:27:04,VALID,1004.64,VALID,0,VALID,99.0839,VALID,0,VALID,24.9866,VALID,3,VALID,0.397656,
2010-06-19, 01:28:04,VALID,1004.62,VALID,0,VALID,99.0763,VALID,0,VALID,24.9885,VALID,3,VALID,0.219922,
2010-06-19, 01:29:04,VALID,1004.63,VALID,0,VALID,99.0992,VALID,0,VALID,24.9885,VALID,3,VALID,0.303906,
2010-06-19, 01:30:04,VALID,1004.64,VALID,0,VALID,99.0992,VALID,0,VALID,25.0079,VALID,3,VALID,0.00664063,
2010-06-19, 01:31:04,VALID,1004.63,VALID,0,VALID,99.122,VALID,0,VALID,24.9652,VALID,3,VALID,0,
2010-06-19, 01:32:04,VALID,1004.61,VALID,0,VALID,99.1373,VALID,0,VALID,24.9866,VALID,3,VALID,0,
2010-06-19, 01:33:04,VALID,1004.6,VALID,0,VALID,99.1297,VALID,0.100563,VALID,25.0079,VALID,3,VALID,0.205078,
2010-06-19, 01:34:04,VALID,1004.58,VALID,0,VALID,99.1602,VALID,0,VALID,25.006,VALID,13,VALID,0.623828,
2010-06-19, 01:35:04,VALID,1004.59,VALID,0,VALID,99.1526,VALID,0,VALID,25.006,VALID,13,VALID,0.272656,
2010-06-19, 01:36:04,VALID,1004.55,VALID,0,VALID,99.1602,VALID,0.100563,VALID,25.0469,VALID,13,VALID,0.125,
2010-06-19, 01:37:04,VALID,1004.5,VALID,0,VALID,99.1831,VALID,0.100563,VALID,25.045,VALID,13,VALID,0.266797,
2010-06-19, 01:38:04,VALID,1004.49,VALID,0,VALID,99.1831,VALID,0.100563,VALID,25.045,VALID,13,VALID,0.239453,
2010-06-19, 01:39:04,VALID,1004.47,VALID,0,VALID,99.1907,VALID,0.100563,VALID,25.045,VALID,13,VALID,0,
2010-06-19, 01:40:04,VALID,1004.48,VALID,0,VALID,99.1831,VALID,0.100563,VALID,25.0431,VALID,13,VALID,0.134375,
2010-06-19, 01:41:04,VALID,1004.56,VALID,0,VALID,99.1754,VALID,0,VALID,25.045,VALID,13,VALID,0.154297,
2010-06-19, 01:42:04,VALID,1004.56,VALID,0,VALID,99.1602,VALID,0.100563,VALID,25.0644,VALID,13,VALID,0.323828,
2010-06-19, 01:43:04,VALID,1004.6,VALID,0,VALID,99.1602,VALID,0.100563,VALID,25.0431,VALID,13,VALID,0.229687,
2010-06-19, 01:44:04,VALID,1004.59,VALID,0,VALID,99.1449,VALID,0.100563,VALID,25.0431,VALID,13,VALID,0.427344,
2010-06-19, 01:45:04,VALID,1004.64,VALID,0,VALID,99.1526,VALID,0.100563,VALID,25.0839,VALID,13,VALID,0.262891,
2010-06-19, 01:46:04,VALID,1004.71,VALID,0,VALID,99.1373,VALID,0,VALID,25.0663,VALID,13,VALID,0.133594,
2010-06-19, 01:47:04,VALID,1004.75,VALID,0,VALID,99.1678,VALID,0,VALID,25.0663,VALID,73,VALID,0.667188,
2010-06-19, 01:48:04,VALID,1004.76,VALID,0,VALID,99.1449,VALID,0,VALID,25.0255,VALID,91,VALID,0.757422,
2010-06-19, 01:49:04,VALID,1004.72,VALID,0,VALID,99.1526,VALID,0,VALID,25.0663,VALID,101,VALID,0.853906,
2010-06-19, 01:50:04,VALID,1004.68,VALID,0,VALID,99.1602,VALID,0,VALID,25.0469,VALID,93,VALID,0.410937,
2010-06-19, 01:51:04,VALID,1004.66,VALID,0,VALID,99.1602,VALID,0,VALID,25.0469,VALID,87,VALID,0.633594,
2010-06-19, 01:52:04,VALID,1004.6,VALID,0,VALID,99.1373,VALID,0,VALID,25.0469,VALID,109,VALID,0.709375,
2010-06-19, 01:53:04,VALID,1004.6,VALID,0,VALID,99.1602,VALID,0,VALID,25.0858,VALID,106,VALID,0.298438,
2010-06-19, 01:54:04,VALID,1004.56,VALID,0,VALID,99.1373,VALID,0,VALID,25.0858,VALID,106,VALID,0.187109,
2010-06-19, 01:55:04,VALID,1004.55,VALID,0,VALID,99.1297,VALID,0,VALID,25.1053,VALID,106,VALID,0.0335938,
2010-06-19, 01:56:04,VALID,1004.54,VALID,0,VALID,99.0992,VALID,0,VALID,25.0858,VALID,106,VALID,0.263672,
2010-06-19, 01:57:04,VALID,1004.54,VALID,0,VALID,99.0915,VALID,0,VALID,25.0858,VALID,107,VALID,0.178906,
2010-06-19, 01:58:04,VALID,1004.52,VALID,0,VALID,99.0915,VALID,0,VALID,25.1248,VALID,162,VALID,0.837109,
2010-06-19, 01:59:04,VALID,1004.57,VALID,0,VALID,99.0534,VALID,0,VALID,25.1637,VALID,137,VALID,1.04023,
2010-06-19, 02:00:04,VALID,1004.62,VALID,0,VALID,98.9695,VALID,0,VALID,25.2202,VALID,149,VALID,0.946484,
2010-06-19, 02:01:04,VALID,1004.66,VALID,0,VALID,98.8932,VALID,0,VALID,25.2611,VALID,120,VALID,0.764844,
2010-06-19, 02:02:04,VALID,1004.64,VALID,0,VALID,98.7787,VALID,0,VALID,25.2592,VALID,131,VALID,0.55,
2010-06-19, 02:03:04,VALID,1004.62,VALID,0,VALID,98.6567,VALID,0,VALID,25.2806,VALID,131,VALID,0.0832031,
2010-06-19, 02:04:04,VALID,1004.53,VALID,0,VALID,98.6109,VALID,0,VALID,25.2806,VALID,114,VALID,0.209375,
2010-06-19, 02:05:04,VALID,1004.48,VALID,0,VALID,98.5499,VALID,0,VALID,25.2806,VALID,114,VALID,0.0253906,
2010-06-19, 02:06:04,VALID,1004.42,VALID,0,VALID,98.5117,VALID,0,VALID,25.2592,VALID,231,VALID,0.446484,
2010-06-19, 02:07:04,VALID,1004.42,VALID,0,VALID,98.4583,VALID,0,VALID,25.2786,VALID,261,VALID,0.215234,
2010-06-19, 02:08:04,VALID,1004.39,VALID,0,VALID,98.4278,VALID,0,VALID,25.2786,VALID,261,VALID,0.0140625,
2010-06-19, 02:09:04,VALID,1004.41,VALID,0,VALID,98.382,VALID,0,VALID,25.3195,VALID,261,VALID,0.101172,
2010-06-19, 02:10:04,VALID,1004.43,VALID,0,VALID,98.3744,VALID,0,VALID,25.3,VALID,261,VALID,0,
2010-06-19, 02:11:04,VALID,1004.49,VALID,0,VALID,98.3973,VALID,0,VALID,25.2786,VALID,21,VALID,0.74375,
2010-06-19, 02:12:04,VALID,1004.52,VALID,0,VALID,98.4126,VALID,0,VALID,25.2806,VALID,360,VALID,0.021875,
2010-06-19, 02:13:04,VALID,1004.55,VALID,0,VALID,98.4507,VALID,0,VALID,25.2611,VALID,274,VALID,0.521484,
2010-06-19, 02:14:04,VALID,1004.63,VALID,0,VALID,98.5346,VALID,0,VALID,25.2806,VALID,21,VALID,0.982031,
2010-06-19, 02:15:04,VALID,1004.66,VALID,0,VALID,98.5728,VALID,0,VALID,25.2416,VALID,356,VALID,0.320313,
2010-06-19, 02:16:04,VALID,1004.68,VALID,0,VALID,98.6033,VALID,0,VALID,25.1813,VALID,266,VALID,0.245312,
2010-06-19, 02:17:04,VALID,1004.75,VALID,0,VALID,98.6262,VALID,0,VALID,25.2027,VALID,283,VALID,0.388281,
2010-06-19, 02:18:04,VALID,1004.77,VALID,0,VALID,98.6414,VALID,0,VALID,25.1832,VALID,286,VALID,0.460547,
2010-06-19, 02:19:04,VALID,1004.79,VALID,0,VALID,98.6719,VALID,0,VALID,25.1637,VALID,289,VALID,0.384375,
2010-06-19, 02:20:04,VALID,1004.76,VALID,0,VALID,98.6719,VALID,0,VALID,25.1832,VALID,290,VALID,0.258203,
2010-06-19, 02:21:04,VALID,1004.67,VALID,0,VALID,98.6567,VALID,0,VALID,25.1618,VALID,283,VALID,0.851563,
2010-06-19, 02:22:04,VALID,1004.61,VALID,0,VALID,98.6491,VALID,0,VALID,25.1618,VALID,290,VALID,0.380078,
2010-06-19, 02:23:04,VALID,1004.61,VALID,0,VALID,98.6185,VALID,0,VALID,25.1637,VALID,294,VALID,0.576172,
2010-06-19, 02:24:04,VALID,1004.56,VALID,0,VALID,98.5956,VALID,0,VALID,25.1637,VALID,275,VALID,0.555078,
2010-06-19, 02:25:04,VALID,1004.61,VALID,0,VALID,98.5423,VALID,0,VALID,25.1442,VALID,327,VALID,0.500391,
2010-06-19, 02:26:04,VALID,1004.66,VALID,0,VALID,98.466,VALID,0,VALID,25.1248,VALID,314,VALID,0.131641,
2010-06-19, 02:27:04,VALID,1004.73,VALID,0,VALID,98.3439,VALID,0,VALID,25.0858,VALID,308,VALID,0.192578,
2010-06-19, 02:28:04,VALID,1004.72,VALID,0,VALID,98.2523,VALID,0,VALID,25.0663,VALID,308,VALID,0.0429688,
2010-06-19, 02:29:04,VALID,1004.73,VALID,0,VALID,98.199,VALID,0,VALID,25.0469,VALID,299,VALID,0.709375,
2010-06-19, 02:30:04,VALID,1004.72,VALID,0,VALID,98.1608,VALID,0,VALID,25.0255,VALID,294,VALID,0.599219,
2010-06-19, 02:31:04,VALID,1004.71,VALID,0,VALID,97.9319,VALID,0,VALID,25.006,VALID,285,VALID,0.317578,
2010-06-19, 02:32:04,VALID,1004.67,VALID,0,VALID,97.909,VALID,0,VALID,25.006,VALID,285,VALID,0.0796875,
2010-06-19, 02:33:04,VALID,1004.65,VALID,0,VALID,97.8633,VALID,0,VALID,24.9866,VALID,316,VALID,0.450781,
2010-06-19, 02:34:04,VALID,1004.56,VALID,0,VALID,97.8785,VALID,0,VALID,24.9671,VALID,336,VALID,0.416797,
2010-06-19, 02:35:04,VALID,1004.51,VALID,0,VALID,97.8785,VALID,0,VALID,24.9671,VALID,360,VALID,0.608594,
2010-06-19, 02:36:04,VALID,1004.52,VALID,0,VALID,97.9701,VALID,0,VALID,24.9904,VALID,359,VALID,0.185156,
2010-06-19, 02:37:04,VALID,1004.52,VALID,0,VALID,97.9701,VALID,0,VALID,24.9282,VALID,360,VALID,0,
2010-06-19, 02:38:04,VALID,1004.52,VALID,0,VALID,98.0387,VALID,0,VALID,24.9087,VALID,360,VALID,0,
2010-06-19, 02:39:04,VALID,1004.5,VALID,0,VALID,98.0769,VALID,0,VALID,24.8892,VALID,360,VALID,0,
2010-06-19, 02:40:04,VALID,1004.45,VALID,0,VALID,98.0769,VALID,0,VALID,24.8911,VALID,360,VALID,0.26875,
2010-06-19, 02:41:04,VALID,1004.42,VALID,0,VALID,98.0998,VALID,0,VALID,24.8503,VALID,360,VALID,0.555078,
2010-06-19, 02:42:04,VALID,1004.34,VALID,0,VALID,98.321,VALID,0,VALID,24.8522,VALID,360,VALID,0.742969,
2010-06-19, 02:43:04,VALID,1004.23,VALID,0,VALID,98.4354,VALID,0,VALID,24.8327,VALID,356,VALID,1.15391,
2010-06-19, 02:44:04,VALID,1004.16,VALID,0,VALID,98.4507,VALID,0,VALID,24.7743,VALID,355,VALID,0.646094,
2010-06-19, 02:45:04,VALID,1004.15,VALID,0,VALID,98.5423,VALID,0,VALID,24.7335,VALID,360,VALID,0.446875,
2010-06-19, 02:46:04,VALID,1004.15,VALID,0,VALID,98.6491,VALID,0,VALID,24.7159,VALID,360,VALID,0.280078,
2010-06-19, 02:47:04,VALID,1004.2,VALID,0,VALID,98.7406,VALID,0,VALID,24.6964,VALID,360,VALID,0.110547,
2010-06-19, 02:48:04,VALID,1004.23,VALID,0,VALID,98.8398,VALID,0,VALID,24.6769,VALID,73,VALID,0.398828,
2010-06-19, 02:49:04,VALID,1004.29,VALID,0,VALID,98.9237,VALID,0,VALID,24.6556,VALID,109,VALID,0.652734,
2010-06-19, 02:50:04,VALID,1004.33,VALID,0,VALID,98.9924,VALID,0,VALID,24.6769,VALID,146,VALID,0.985937,
2010-06-19, 02:51:04,VALID,1004.38,VALID,0,VALID,99.0686,VALID,0,VALID,24.675,VALID,159,VALID,1.08945,
2010-06-19, 02:52:04,VALID,1004.4,VALID,0,VALID,99.1068,VALID,0,VALID,24.6964,VALID,162,VALID,0.917578,
2010-06-19, 02:53:04,VALID,1004.39,VALID,0,VALID,99.1754,VALID,0,VALID,24.6769,VALID,160,VALID,0.824609,
2010-06-19, 02:54:04,VALID,1004.38,VALID,0,VALID,99.1754,VALID,0,VALID,24.6574,VALID,147,VALID,0.485156,
2010-06-19, 02:55:04,VALID,1004.36,VALID,0,VALID,99.2212,VALID,0,VALID,24.6769,VALID,125,VALID,0.659766,
2010-06-19, 02:56:04,VALID,1004.38,VALID,0,VALID,99.2365,VALID,0,VALID,24.6361,VALID,107,VALID,0.908984,
2010-06-19, 02:57:04,VALID,1004.37,VALID,0,VALID,99.267,VALID,0,VALID,24.6964,VALID,105,VALID,0.544141,
2010-06-19, 02:58:04,VALID,1004.37,VALID,0,VALID,99.2975,VALID,0,VALID,24.6945,VALID,105,VALID,0.487891,
2010-06-19, 02:59:04,VALID,1004.33,VALID,0,VALID,99.3128,VALID,0,VALID,24.6945,VALID,94,VALID,0.339844,
2010-06-19, 03:00:04,VALID,1004.28,VALID,0,VALID,99.3051,VALID,0,VALID,24.675,VALID,94,VALID,0.372266,
2010-06-19, 03:01:04,VALID,1004.24,VALID,0,VALID,99.3204,VALID,0,VALID,24.675,VALID,44,VALID,0.514063,
2010-06-19, 03:02:04,VALID,1004.19,VALID,0,VALID,99.328,VALID,0,VALID,24.6964,VALID,8,VALID,0.771875,
2010-06-19, 03:03:04,VALID,1004.14,VALID,0,VALID,99.3204,VALID,0,VALID,24.6361,VALID,2,VALID,0.850391,
2010-06-19, 03:04:04,VALID,1004.12,VALID,0,VALID,99.328,VALID,0,VALID,24.6574,VALID,360,VALID,0.453125,
2010-06-19, 03:05:04,VALID,1004.16,VALID,0,VALID,99.3357,VALID,0,VALID,24.6361,VALID,360,VALID,0.383594,
2010-06-19, 03:06:04,VALID,1004.18,VALID,0,VALID,99.3509,VALID,0,VALID,24.6361,VALID,19,VALID,0.763672,
2010-06-19, 03:07:04,VALID,1004.23,VALID,0,VALID,99.3662,VALID,0,VALID,24.6574,VALID,25,VALID,0.223047,
2010-06-19, 03:08:04,VALID,1004.25,VALID,0,VALID,99.3585,VALID,0,VALID,24.6769,VALID,17,VALID,0.520312,
2010-06-19, 03:09:04,VALID,1004.26,VALID,0,VALID,99.3738,VALID,0,VALID,24.6964,VALID,17,VALID,0.0960938,
2010-06-19, 03:10:04,VALID,1004.28,VALID,0,VALID,99.3814,VALID,0,VALID,24.6945,VALID,17,VALID,0,
2010-06-19, 03:11:04,VALID,1004.28,VALID,0,VALID,99.3814,VALID,0,VALID,24.7159,VALID,17,VALID,0,
2010-06-19, 03:12:04,VALID,1004.31,VALID,0,VALID,99.3662,VALID,0,VALID,24.7159,VALID,17,VALID,0,
2010-06-19, 03:13:04,VALID,1004.29,VALID,0,VALID,99.3509,VALID,0,VALID,24.7159,VALID,17,VALID,0,
2010-06-19, 03:14:04,VALID,1004.34,VALID,0,VALID,99.3509,VALID,0,VALID,24.6945,VALID,17,VALID,0,
2010-06-19, 03:15:04,VALID,1004.38,VALID,0,VALID,99.3357,VALID,0,VALID,24.7159,VALID,17,VALID,0,
2010-06-19, 03:16:04,VALID,1004.42,VALID,0,VALID,99.3433,VALID,0,VALID,24.7353,VALID,17,VALID,0.0953125,
2010-06-19, 03:17:04,VALID,1004.41,VALID,0,VALID,99.3204,VALID,0,VALID,24.7353,VALID,17,VALID,0,
2010-06-19, 03:18:04,VALID,1004.41,VALID,0,VALID,99.3357,VALID,0,VALID,24.7548,VALID,17,VALID,0.00195313,
2010-06-19, 03:19:04,VALID,1004.4,VALID,0,VALID,99.328,VALID,0,VALID,24.7335,VALID,17,VALID,0.0734375,
2010-06-19, 03:20:04,VALID,1004.38,VALID,0,VALID,99.328,VALID,0,VALID,24.7353,VALID,17,VALID,0,
2010-06-19, 03:21:04,VALID,1004.36,VALID,0,VALID,99.3433,VALID,0,VALID,24.714,VALID,17,VALID,0,
2010-06-19, 03:22:04,VALID,1004.39,VALID,0,VALID,99.3204,VALID,0,VALID,24.714,VALID,17,VALID,0.563281,
2010-06-19, 03:23:04,VALID,1004.41,VALID,0,VALID,99.3204,VALID,0,VALID,24.7353,VALID,17,VALID,0.447656,
2010-06-19, 03:24:04,VALID,1004.44,VALID,0,VALID,99.3662,VALID,0,VALID,24.7159,VALID,17,VALID,0.492188,
2010-06-19, 03:25:04,VALID,1004.39,VALID,0,VALID,99.3509,VALID,0,VALID,24.675,VALID,17,VALID,0.333203,
2010-06-19, 03:26:04,VALID,1004.37,VALID,0,VALID,99.3585,VALID,0,VALID,24.6964,VALID,17,VALID,0.0847656,
2010-06-19, 03:27:04,VALID,1004.37,VALID,0,VALID,99.3814,VALID,0,VALID,24.675,VALID,17,VALID,0.114844,
2010-06-19, 03:28:04,VALID,1004.37,VALID,0,VALID,99.3967,VALID,0,VALID,24.675,VALID,17,VALID,0.318359,
2010-06-19, 03:29:04,VALID,1004.38,VALID,0,VALID,99.3891,VALID,0,VALID,24.6769,VALID,17,VALID,0.434766,
2010-06-19, 03:30:04,VALID,1004.38,VALID,0,VALID,99.4119,VALID,0,VALID,24.6964,VALID,17,VALID,0.298047,
2010-06-19, 03:31:04,VALID,1004.41,VALID,0,VALID,99.4119,VALID,0,VALID,24.6964,VALID,17,VALID,0.223047,
2010-06-19, 03:32:04,VALID,1004.43,VALID,0,VALID,99.4348,VALID,0,VALID,24.6556,VALID,17,VALID,0.182422,
2010-06-19, 03:33:04,VALID,1004.46,VALID,0,VALID,99.4196,VALID,0,VALID,24.6556,VALID,17,VALID,0.00273437,
2010-06-19, 03:34:04,VALID,1004.42,VALID,0,VALID,99.4577,VALID,0,VALID,24.6361,VALID,17,VALID,0.0078125,
2010-06-19, 03:35:04,VALID,1004.38,VALID,0,VALID,99.4501,VALID,0,VALID,24.638,VALID,17,VALID,0,
2010-06-19, 03:36:04,VALID,1004.38,VALID,0,VALID,99.4577,VALID,0,VALID,24.6593,VALID,17,VALID,0,
2010-06-19, 03:37:04,VALID,1004.35,VALID,0,VALID,99.4653,VALID,0,VALID,24.6166,VALID,17,VALID,0,
2010-06-19, 03:38:04,VALID,1004.35,VALID,0,VALID,99.4653,VALID,0,VALID,24.638,VALID,17,VALID,0,
2010-06-19, 03:39:04,VALID,1004.34,VALID,0,VALID,99.4425,VALID,0,VALID,24.6185,VALID,17,VALID,0,
2010-06-19, 03:40:04,VALID,1004.33,VALID,0,VALID,99.4653,VALID,0,VALID,24.5972,VALID,17,VALID,0,
2010-06-19, 03:41:04,VALID,1004.29,VALID,0,VALID,99.4577,VALID,0,VALID,24.5972,VALID,17,VALID,0,
2010-06-19, 03:42:04,VALID,1004.28,VALID,0,VALID,99.473,VALID,0,VALID,24.5777,VALID,17,VALID,0.121875,
2010-06-19, 03:43:04,VALID,1004.28,VALID,0,VALID,99.473,VALID,0,VALID,24.5777,VALID,17,VALID,0.132422,
2010-06-19, 03:44:04,VALID,1004.25,VALID,0,VALID,99.4882,VALID,0.100563,VALID,24.599,VALID,17,VALID,0.23125,
2010-06-19, 03:45:04,VALID,1004.26,VALID,0,VALID,99.4806,VALID,0,VALID,24.5582,VALID,17,VALID,0.394531,